Current weather by "City, St" or "zip code"  
 

Current Conditions: Anniston Metro Airport, AL

Rain Fog/Mist


69.0 F

Last Updated on Oct 24 2020, 11:49 am CDT
Humidity: 93%
Wind Speed: E 3.5 mph
Barometer 30.01 in
Dewpoint: 66.9 F
Visibility: 2.50 mi
Precip: --
Heat Index: NA
Wind Chill: NA
Current conditions at:

Anniston Metro Airport, AL (KANB)

Lat: 33.59045 Lon: 85.84789

Local Radar Image active severe weather and emergency alerts image image weather storm and storm spotter reports image weather observation monitoring service image
Local
Radar
Active
Alerts
Storm Reports Obs
Monitoring

Sign-up For Email & Text Message Weather Alert Notification Services



Advertise Here

Observation History for Anniston Metro Airport, AL


Time Wind
(mph)
Vis
(mi)
Weather Precip (in) Temperature (F) Relative
Humidity
Wind
Chill
(F)
Heat
Index
(F)
Pressure
Air Dwpt altimeter
(in)
sea level
(mb)
Rmks
11:49 am CDT E 3.5 2.50 Rain Fog/Mist -- 69.0 66.9 93% NA NA 30.01 1015.7
10:53 am CDT N 3.5 8.00 Light Rain Trace 71.0 66.9 87% NA NA 30.02 1015.9
9:53 am CDT NE 3.5 10.00 Overcast Trace 70.0 66.9 90% NA NA 30.02 1015.9
8:53 am CDT E 6.9 7.00 Light Rain Trace 69.0 66.0 90% NA NA 30.02 1016.1
7:53 am CDT NE 6.9 10.00 Overcast -- 68.0 64.9 90% NA NA 30.01 1015.7
6:53 am CDT NE 4.6 10.00 Mostly Cloudy -- 67.0 64.9 93% NA NA 30.00 1015.4
5:53 am CDT NE 4.6 10.00 Fair -- 66.0 64.0 93% NA NA 30.01 1015.6
4:53 am CDT N 0.0 10.00 A Few Clouds -- 67.0 64.0 91% NA NA 30.01 1015.5
3:53 am CDT E 3.5 10.00 Mostly Cloudy -- 66.0 64.0 93% NA NA 30.01 1015.6
2:53 am CDT N 0.0 10.00 Overcast -- 66.0 64.0 93% NA NA 30.02 1015.8
1:53 am CDT N 0.0 10.00 Mostly Cloudy -- 65.0 63.0 93% NA NA 30.02 1016.0
12:53 am CDT N 0.0 10.00 Fair -- 65.0 64.0 97% NA NA 30.03 1016.1
11:53 pm CDT N 0.0 10.00 Fair -- 65.0 63.0 93% NA NA 30.05 1016.8
10:53 pm CDT N 0.0 10.00 Fair -- 66.0 64.9 96% NA NA 30.05 1017.1
9:53 pm CDT N 0.0 10.00 Fair -- 68.0 66.0 93% NA NA 30.05 1017.1
8:53 pm CDT N 0.0 10.00 Fair -- 68.0 66.0 93% NA NA 30.05 1017.1
7:53 pm CDT E 3.5 10.00 Fair -- 70.0 66.9 90% NA NA 30.04 1016.6
6:53 pm CDT N 0.0 10.00 Fair -- 70.0 68.0 93% NA NA 30.02 1016.2
5:53 pm CDT N 0.0 10.00 Fair -- 73.0 69.1 87% NA NA 30.01 1015.7
4:53 pm CDT E 3.5 10.00 Fair Trace 79.0 69.1 72% NA NA 30.02 1015.8
3:53 pm CDT N 4.6 10.00 Light Rain Trace 77.0 68.0 74% NA NA 30.03 1016.0
2:53 pm CDT N 0.0 10.00 Light Rain Trace 79.0 66.9 67% NA NA 30.04 1016.4
1:53 pm CDT E 3.5 10.00 Mostly Cloudy -- 80.0 66.0 62% NA 82 30.06 1017.2
12:53 pm CDT E 8.1 10.00 Mostly Cloudy -- 82.0 66.9 60% NA 84 30.09 1018.0

Regional Weather Observation


Anniston Metro Airport, AL (KANB)

Rain Fog/Mist
69.0 F

Birmingham, Birmingham International Airport, AL (KBHM)

Heavy Rain Fog/Mist
67.0 F

Albertville, Albertville Municipal Airport, AL (K8A0)

Overcast
64.0 F

Carrollton West Georgia Regional Airport, GA (KCTJ)

Overcast
71.0 F

Alabaster, Shelby County Airport, AL (KEET)

Rain Fog/Mist
67.0 F

Fort Payne, Isbell Field Airport, AL (K4A9)

Light Rain
68.0 F